Location: Newark
(45.8511°N, 10.8245°E)
Time: 12:10:39
(UTC+00:00)

OTV 5 (USA 277) - Pass Details

Date: 27 August 2019
Orbit: 295 x 339 km, 54.5° (Epoch: 08 September)

Event Time Altitude Azimuth Distance (km) Brightness Sun altitude
Rises 18:37:11 0° 231° (SW) 2,004 ? -6.2°
Reaches altitude 10° 18:39:08 10° 230° (SW) 1,175 ? -6.5°
Maximum altitude 18:41:44 78° 144° (SE) 311 ? -6.9°
Drops below altitude 10° 18:44:18 10° 57° (ENE) 1,168 ? -7.3°
Sets 18:46:14 0° 56° (ENE) 1,990 ? -7.6°
Enters shadow 18:46:15 - 56° (ENE) 1,993 ? -7.6°
